Tracking 25709 objects as of 24-May-2022
HD Live streaming from Space Station
objects crossing your sky now

DELTA 2 R/B(2)

Track DELTA 2 R/B(2) now!


NORAD ID: 25548
Int'l Code: 1998-068C
Perigee: 1,276.0 km
Apogee: 36,670.7 km
Inclination: 19.8 °
Period: 669.2 minutes
Semi major axis: 25344 km
RCS: 3.2304 m2 (large)
Launch date: November 22, 1998
Source: United States (US)
Launch site: AIR FORCE EASTERN TEST RANGE (AFETR)

Note: This is a ROCKET BODY
aabbcc
Your satellite tracking list
Your tracking list is empty




NASA's NSSDC Master Catalog

Two Line Element Set (TLE):
1 25548U 98068C   22143.59645886 -.00000180  00000-0  00000-0 0  9998
2 25548  19.7878 270.8950 6982765 173.7090 205.2447  2.15169562184797
Source of the keplerian elements: AFSPC